Hailey, ID

10:42 PM MST on February 11, 2016 (GMT -0700)
Friedman Memorial

Weather History for KSUN - August, 2013

Change the Weather History Date:

Tuesday, August 6, 2013

  Actual Average Record
Temperature  
Mean Temperature 68 °F -  
Max Temperature 89 °F 83 °F 98 °F (2001)
Min Temperature 48 °F 53 °F 35 °F (1996)
Cooling Degree Days 4    
Growing Degree Days 18 (Base 50)    
Moisture  
Dew Point 31 °F    
Average Humidity 30    
Maximum Humidity 54    
Minimum Humidity 11    
Precipitation  
Precipitation 0.00 in - - ()
Sea Level Pressure  
Sea Level Pressure 30.09 in    
Wind  
Wind Speed 10 mph (WNW)    
Max Wind Speed 13 mph    
Max Gust Speed 25 mph    
Visibility 10 miles    
Events      
Averages and records for this station are not official NWS values.
T = Trace of Precipitation, MM = Missing Value Source: NWS Daily Summary

Daily Weather History Graph

Daily Weather History Graph

Search for Another Location

Airport or City:

Trip Planner

Search our weather history database for the weather conditions in past years. The results will help you decide how hot, cold, wet, or windy it might be!

Date:

Astronomy

Aug. 06, 2013 Rise Set
Actual Time 6:32 AM MDT 8:52 PM MDT
Civil Twilight 6:00 AM MDT 9:24 PM MDT
Nautical Twilight 5:20 AM MDT 10:04 PM MDT
Astronomical Twilight 4:36 AM MDT 10:48 PM MDT
Moon 6:29 AM MDT (8/6) 8:27 PM MDT (8/6)
Length of Visible Light 15h 24m
Length of Day
14h 20m
Waning Crescent, 0% of the Moon is Illuminated
Aug 6
Waning Crescent
Aug 6
New
Aug 14
First Quarter
Aug 20
Full
Aug 28
Last Quarter

Hourly Weather History & Observations

Time (MDT) Temp. Dew Point Humidity Pressure Visibility Wind Dir Wind Speed Gust Speed Precip Events Conditions
12:15 AM 64.4 °F 32.0 °F 30% 30.07 in 10.0 mi NW 10.4 mph - N/A   Clear
12:35 AM 64.4 °F 32.0 °F 30% 30.07 in 10.0 mi NW 10.4 mph - N/A   Clear
12:55 AM 64.4 °F 32.0 °F 30% 30.07 in 10.0 mi NW 10.4 mph - N/A   Clear
1:15 AM 62.6 °F 32.0 °F 32% 30.07 in 10.0 mi NW 9.2 mph - N/A   Clear
1:35 AM 62.6 °F 32.0 °F 32% 30.08 in 10.0 mi NW 10.4 mph - N/A   Clear
1:55 AM 62.6 °F 30.2 °F 30% 30.08 in 10.0 mi NW 11.5 mph - N/A   Clear
2:15 AM 60.8 °F 30.2 °F 31% 30.08 in 10.0 mi WNW 10.4 mph - N/A   Clear
2:35 AM 60.8 °F 32.0 °F 34% 30.08 in 10.0 mi NW 9.2 mph - N/A   Clear
2:55 AM 60.8 °F 32.0 °F 34% 30.08 in 10.0 mi NW 10.4 mph - N/A   Clear
3:15 AM 59.0 °F 32.0 °F 36% 30.09 in 10.0 mi NW 9.2 mph - N/A   Clear
3:35 AM 59.0 °F 32.0 °F 36% 30.09 in 10.0 mi NW 8.1 mph - N/A   Clear
3:55 AM 57.2 °F 32.0 °F 38% 30.09 in 10.0 mi NW 9.2 mph - N/A   Clear
4:15 AM 57.2 °F 30.2 °F 36% 30.09 in 10.0 mi NW 9.2 mph - N/A   Clear
4:35 AM 57.2 °F 30.2 °F 36% 30.10 in 10.0 mi NW 11.5 mph - N/A   Clear
4:55 AM 55.4 °F 30.2 °F 38% 30.10 in 10.0 mi NW 10.4 mph - N/A   Clear
5:15 AM 55.4 °F 30.2 °F 38% 30.11 in 10.0 mi NW 12.7 mph - N/A   Clear
5:35 AM 55.4 °F 30.2 °F 38% 30.11 in 10.0 mi NW 10.4 mph - N/A   Clear
5:55 AM 55.4 °F 30.2 °F 38% 30.12 in 10.0 mi NW 10.4 mph - N/A   Clear
6:15 AM 55.4 °F 30.2 °F 38% 30.12 in 10.0 mi NW 11.5 mph - N/A   Clear
6:35 AM 53.6 °F 32.0 °F 44% 30.12 in 10.0 mi NW 11.5 mph - N/A   Clear
6:47 AM 55.4 °F 30.2 °F 38% 30.13 in 10.0 mi NW 9.2 mph - N/A   Clear
6:55 AM 53.6 °F 32.0 °F 44% 30.13 in 10.0 mi NW 10.4 mph - N/A   Clear
7:47 AM 55.4 °F 32.0 °F 41% 30.14 in 10.0 mi NW 10.4 mph - N/A   Clear
8:47 AM 62.6 °F 33.8 °F 34% 30.15 in 10.0 mi WNW 10.4 mph - N/A   Clear
9:47 AM 69.8 °F 35.6 °F 28% 30.15 in 10.0 mi NW 5.8 mph - N/A   Clear
10:47 AM 75.2 °F 35.6 °F 24% 30.14 in 10.0 mi ESE 5.8 mph - N/A   Clear
11:55 AM 80.6 °F 39.2 °F 23% 30.13 in 10.0 mi SE 8.1 mph - N/A   Partly Cloudy
12:50 PM 84.2 °F 33.8 °F 16% 30.11 in 10.0 mi ESE 5.8 mph 17.3 mph N/A   Partly Cloudy
1:47 PM 48.2 °F 32.0 °F 54% 30.10 in 10.0 mi West 10.4 mph 16.1 mph N/A   Partly Cloudy
2:47 PM 86.0 °F 28.4 °F 12% 30.09 in 10.0 mi SSW 10.4 mph 25.3 mph N/A   Partly Cloudy
3:47 PM 87.8 °F 30.2 °F 13% 30.07 in 10.0 mi SW 9.2 mph 19.6 mph N/A   Partly Cloudy
5:47 PM 89.6 °F 28.4 °F 11% 30.04 in 10.0 mi WNW 10.4 mph - N/A   Partly Cloudy
6:52 PM 87.8 °F 26.6 °F 11% 30.03 in 10.0 mi West 5.8 mph - N/A   Partly Cloudy
7:47 PM 84.2 °F 30.2 °F 14% 30.02 in 10.0 mi West 6.9 mph - N/A   Partly Cloudy
8:47 PM 77.0 °F 30.2 °F 18% 30.03 in 10.0 mi West 3.5 mph - N/A   Partly Cloudy
9:47 PM 73.4 °F 32.0 °F 22% 30.06 in 10.0 mi WNW 4.6 mph - N/A   Partly Cloudy
10:47 PM 69.8 °F 28.4 °F 21% 30.07 in 10.0 mi West 10.4 mph - N/A   Partly Cloudy
11:15 PM 68.0 °F 28.4 °F 23% 30.07 in 10.0 mi WNW 10.4 mph - N/A   Clear
11:35 PM 66.2 °F 30.2 °F 26% 30.08 in 10.0 mi NW 11.5 mph - N/A   Clear
11:55 PM 66.2 °F 30.2 °F 26% 30.08 in 10.0 mi NW 11.5 mph - N/A   Clear